DB0BQ-11 Weather Reports


Display with metric or nautical units.
time (UTC)temp
F
wind
direction
speed
MPH
gust
MPH
rain 1hr
in
rain 24hr
in
rain mn
in
humidity
%
barometer
mb
20260507032055 46 215 2.0 3.0 0.00 0.00 0.00 96 1012.0
20260507031033 46 209 2.0 3.0 0.00 0.00 0.00 96 1012.0
20260507030031 46 204 2.0 4.0 0.00 0.00 0.00 96 1011.9
20260507025209 46 220 2.0 3.0 0.00 0.00 0.00 95 1011.8
20260507024026 46 215 2.0 4.0 0.00 0.00 0.00 95 1011.8
20260507023025 46 213 2.0 3.0 0.00 0.00 0.00 95 1011.7
20260507022022 46 217 2.0 4.0 0.00 0.00 0.00 95 1011.7
20260507021020 46 216 1.0 4.0 0.00 0.00 0.00 95 1011.8
20260507020018 46 211 1.0 3.0 0.00 0.00 0.00 95 1011.7
20260507015116 46 222 2.0 3.0 0.00 0.00 0.00 96 1011.5
20260507014033 46 210 2.0 5.0 0.00 0.00 0.00 97 1011.5
20260507013031 46 217 2.0 3.0 0.00 0.00 0.00 97 1011.5
20260507012029 46 218 2.0 3.0 0.00 0.00 0.00 96 1011.5
20260507011027 46 217 2.0 4.0 0.00 0.00 0.00 96 1011.4
20260507010025 46 208 2.0 3.0 0.00 0.00 0.00 96 1011.4
20260507005043 46 218 2.0 3.0 0.00 0.00 0.00 96 1011.2
20260507004021 46 223 2.0 4.0 0.00 0.00 0.00 96 1011.2
20260507003019 46 219 2.0 3.0 0.00 0.00 0.00 95 1011.3
20260507002016 46 210 2.0 3.0 0.00 0.00 0.00 95 1011.2
20260507001034 46 223 1.0 3.0 0.00 0.00 0.00 95 1011.2
20260507000032 46 225 1.0 4.0 0.00 0.00 0.00 95 1011.3
20260506235030 46 211 2.0 4.0 0.00 0.00 0.00 94 1011.3
20260506234048 47 217 1.0 3.0 0.00 0.00 0.00 95 1011.2
20260506233025 47 220 2.0 3.0 0.00 0.00 0.00 94 1011.1
20260506232023 47 218 2.0 3.0 0.00 0.00 0.00 94 1011.0
20260506231041 47 209 1.0 3.0 0.00 0.00 0.00 94 1011.0
20260506230039 47 219 1.0 5.0 0.00 0.00 0.00 95 1011.0
20260506225017 47 218 2.0 3.0 0.00 0.00 0.00 95 1010.9
20260506224035 47 221 1.0 3.0 0.00 0.00 0.00 95 1010.8
20260506223032 47 213 2.0 3.0 0.00 0.00 0.00 96 1010.8
20260506222030 47 217 2.0 3.0 0.00 0.00 0.00 96 1010.7
20260506221048 47 220 2.0 3.0 0.00 0.00 0.00 96 1010.7
20260506220026 47 217 2.0 4.0 0.00 0.00 0.00 96 1010.7
20260506215044 47 218 2.0 3.0 0.00 0.00 0.00 96 1010.7
20260506214022 47 214 2.0 4.0 0.00 0.00 0.00 96 1010.6
20260506213020 47 218 2.0 4.0 0.00 0.00 0.00 96 1010.5
20260506212017 47 235 3.0 6.0 0.00 0.00 0.00 95 1010.6
20260506211016 47 234 2.0 4.0 0.00 0.00 0.00 96 1010.5
20260506210033 47 231 2.0 6.0 0.00 0.00 0.00 96 1010.5
20260506205031 47 223 2.0 6.0 0.00 0.00 0.00 96 1010.4
20260506204049 47 231 3.0 9.0 0.00 0.00 0.00 96 1010.3
20260506203027 47 216 2.0 4.0 0.00 0.00 0.00 97 1010.3
20260506202024 47 206 2.0 4.0 0.00 0.00 0.00 97 1010.3
20260506201022 47 210 2.0 4.0 0.00 0.00 0.00 97 1010.3
20260506200020 47 212 2.0 3.0 0.00 0.00 0.00 96 1010.1
20260506195018 47 219 2.0 4.0 0.00 0.00 0.00 96 1009.9
20260506194056 47 237 2.0 4.0 0.00 0.00 0.00 96 1009.9
20260506193034 47 220 2.0 7.0 0.00 0.00 0.00 96 1010.0
20260506192051 47 216 2.0 5.0 0.00 0.00 0.00 96 1009.9
20260506191029 47 233 2.0 8.0 0.00 0.00 0.00 96 1009.7
20260506190027 47 218 2.0 6.0 0.00 0.00 0.00 96 1009.6
20260506185025 47 222 2.0 5.0 0.00 0.00 0.00 96 1009.5
20260506184023 47 216 2.0 6.0 0.00 0.00 0.00 96 1009.4
20260506183021 47 222 2.0 6.0 0.00 0.00 0.00 96 1009.3
20260506182019 47 230 5.0 8.0 0.00 0.00 0.00 95 1009.2
20260506181016 47 224 4.0 9.0 0.00 0.00 0.00 95 1009.1
20260506180035 47 242 5.0 10.0 0.00 0.00 0.00 95 1008.9
20260506175032 48 232 4.0 11.0 0.00 0.00 0.00 95 1008.8
20260506174030 48 225 3.0 9.0 0.00 0.00 0.00 95 1008.7
20260506173048 48 223 3.0 8.0 0.00 0.00 0.00 95 1008.6
20260506172026 48 237 5.0 10.0 0.00 0.00 0.00 95 1008.5
20260506171023 48 234 5.0 10.0 0.00 0.00 0.00 95 1008.4
20260506170041 48 231 5.0 8.0 0.00 0.00 0.00 95 1008.3
20260506165019 48 237 7.0 14.0 0.00 0.00 0.00 96 1008.4
20260506164017 48 234 6.0 12.0 0.00 0.00 0.00 97 1008.4
20260506163035 48 246 4.0 10.0 0.00 0.00 0.00 97 1008.3
20260506162033 48 231 3.0 8.0 0.00 0.00 0.00 97 1008.2
20260506161030 49 235 3.0 6.0 0.00 0.00 0.00 98 1008.2
20260506160028 48 238 3.0 10.0 0.00 0.00 0.00 97 1008.3
20260506155026 49 238 5.0 9.0 0.00 0.00 0.00 98 1008.2
20260506154024 49 227 2.0 7.0 0.00 0.00 0.00 98 1008.2
20260506153022 49 226 3.0 8.0 0.00 0.00 0.00 98 1008.2
20260506152020 48 224 2.0 7.0 0.00 0.00 0.00 98 1008.1
20260506151018 48 230 2.0 6.0 0.00 0.00 0.00 98 1008.0
20260506150016 48 220 2.0 5.0 0.00 0.00 0.00 98 1008.0
20260506145034 48 235 4.0 9.0 0.00 0.00 0.00 99 1007.9
20260506144031 48 229 4.0 6.0 0.00 0.00 0.00 98 1007.9
20260506143049 48 230 4.0 8.0 0.00 0.00 0.00 98 1007.8
20260506142027 48 233 4.0 9.0 0.00 0.00 0.00 98 1007.9
20260506141025 48 209 2.0 4.0 0.00 0.00 0.00 98 1007.9
20260506140023 48 225 4.0 7.0 0.00 0.00 0.00 97 1007.8
20260506135020 48 226 4.0 8.0 0.00 0.00 0.00 98 1007.9
20260506134018 48 227 3.0 7.0 0.00 0.00 0.00 97 1007.9
20260506133036 48 233 5.0 13.0 0.00 0.00 0.00 98 1007.8
20260506132034 47 230 4.0 7.0 0.00 0.00 0.00 98 1007.8
20260506131032 47 237 5.0 13.0 0.00 0.00 0.00 97 1007.7
20260506130030 48 236 3.0 9.0 0.00 0.00 0.00 98 1007.6
20260506125027 47 234 3.0 8.0 0.00 0.00 0.00 98 1007.6
20260506124025 47 216 3.0 8.0 0.00 0.00 0.00 98 1007.7
20260506123043 48 223 3.0 8.0 0.00 0.00 0.00 98 1007.6
20260506122021 48 223 3.0 8.0 0.00 0.00 0.00 98 1007.4
20260506121019 48 226 2.0 4.0 0.00 0.00 0.00 98 1007.4
20260506120017 48 219 3.0 6.0 0.00 0.00 0.00 99 1007.2
20260506115035 47 222 2.0 6.0 0.00 0.00 0.00 98 1007.2
20260506114032 48 234 5.0 12.0 0.00 0.00 0.00 99 1007.2
20260506113031 47 231 5.0 11.0 0.00 0.00 0.00 98 1007.1
20260506112028 47 229 3.0 9.0 0.00 0.00 0.00 98 1007.2
20260506111026 47 232 3.0 9.0 0.00 0.00 0.00 98 1007.2
20260506110024 47 235 5.0 9.0 0.00 0.00 0.00 97 1007.1
20260506105022 47 229 3.0 9.0 0.00 0.00 0.00 97 1007.1
20260506104019 48 232 3.0 10.0 0.00 0.00 0.00 98 1006.9
20260506103038 48 233 5.0 12.0 0.00 0.00 0.00 98 1006.9
20260506102015 48 228 4.0 10.0 0.00 0.00 0.00 98 1006.8
20260506101033 48 230 4.0 9.0 0.00 0.00 0.00 98 1006.7
20260506100031 48 211 3.0 8.0 0.00 0.00 0.00 98 1006.7
20260506095029 48 224 3.0 8.0 0.00 0.00 0.00 98 1006.6
20260506094047 48 232 4.0 10.0 0.00 0.00 0.00 98 1006.5
20260506093025 48 232 2.0 8.0 0.00 0.00 0.00 98 1006.4
20260506092022 49 235 2.0 6.0 0.00 0.00 0.00 99 1006.3
20260506091020 49 195 2.0 6.0 0.00 0.00 0.00 99 1006.0
20260506090018 49 243 2.0 4.0 0.00 0.00 0.00 99 1006.2
20260506085016 49 218 2.0 5.0 0.00 0.00 0.00 99 1006.1
20260506084034 49 238 3.0 9.0 0.00 0.00 0.00 98 1006.0
20260506083032 49 239 2.0 10.0 0.00 0.00 0.00 99 1006.0
20260506082030 49 205 2.0 6.0 0.00 0.00 0.00 99 1006.0
20260506081028 49 219 3.0 7.0 0.00 0.00 0.00 99 1005.9
20260506073019 49 227 3.0 6.0 0.00 0.00 0.00 99 1005.7
20260506072037 49 236 5.0 8.0 0.00 0.00 0.00 99 1005.8
20260506071035 49 229 4.0 8.0 0.00 0.00 0.00 99 1005.7
20260506062024 49 234 4.0 10.0 0.00 0.00 0.00 99 1005.5
20260506061022 49 207 2.0 5.0 0.00 0.00 0.00 99 1005.4
20260506051109 49 229 2.0 6.0 0.00 0.00 0.00 99 1005.4
20260506045044 49 217 1.0 3.0 0.00 0.00 0.00 99 1005.3
20260506044022 49 229 4.0 9.0 0.00 0.00 0.00 99 1005.2
20260506043020 49 234 3.0 9.0 0.00 0.00 0.00 99 1005.3
20260506042018 49 229 4.0 10.0 0.00 0.00 0.00 99 1005.1
20260506041016 49 231 3.0 9.0 0.00 0.00 0.00 99 1005.3
20260506040034 49 233 5.0 10.0 0.00 0.00 0.00 99 1005.3
20260506035051 49 231 4.0 9.0 0.00 0.00 0.00 99 1005.3
20260506034029 49 234 5.0 8.0 0.00 0.00 0.00 99 1005.3
20260506033027 49 229 4.0 10.0 0.00 0.00 0.00 99 1005.4